Regional Weather Roundup
Issued by NWS Newport/Morehead, NC

Home | Current Version | Previous Version | Text Only | Print | Product List | Glossary On
Versions: 1 2 3 4 5 6 7 8 9 10 11 12 13 14 15 16 17 18 19 20 21 22 23 24 25 26 27 28 29 30 31 32 33 34 35 36 37 38 39 40 41 42 43 44 45 46 47 48 49 50
000
ASUS42 KMHX 021810
RWRMHX
WEATHER ROUNDUP FOR EASTERN NORTH CAROLINA
NATIONAL WEATHER SERVICE NEWPORT/MOREHEAD CITY NC
200 PM EDT THU OCT 02 2014

NOTE: "FAIR" INDICATES FEW OR NO CLOUDS BELOW 12,000 FEET
WITH NO SIGNIFICANT WEATHER AND/OR OBSTRUCTIONS TO VISIBILITY

NCZ015>017-031-032-045>047-102-103-021900-
NORTH COAST

CITY           SKY/WX    TMP DP  RH WIND       PRES   REMARKS
EDENTON        PTSUNNY   75  63  66 CALM      30.09F
ELIZABETH CITY MOSUNNY   76  62  62 N6        30.09F
KITTY HAWK     PTCLDY    73  61  65 N9        30.09S
MANTEO         MOSUNNY   73  61  65 N12       30.10F

$$

NCZ045>047-081-094-103-104-021900-
CENTRAL COAST

CITY           SKY/WX    TMP DP  RH WIND       PRES   REMARKS
FRISCO         MOSUNNY   74  63  68 N8        30.09F
SWANQUARTER      N/A     77 N/A N/A N5        30.03F

$$

NCZ095-097-098-100-101-021900-
SOUTHERN COAST

CITY           SKY/WX    TMP DP  RH WIND       PRES   REMARKS
BEAUFORT       CLOUDY    76  67  73 SE5       30.09F
CEDAR ISLAND     N/A     73 N/A N/A N5        30.15S
JACKSONVILLE   PTSUNNY   80  64  58 E6        30.07F
NEWPORT        NOT AVBL
PINEY ISLAND   CLEAR     75  64  68 E9        30.09F
WILMINGTON     MOSUNNY   83  65  54 W7        30.07F


$$

NCZ011>013-027>030-043-044-078>080-089-090>093-098-021900-
COASTAL PLAIN

CITY           SKY/WX    TMP DP  RH WIND       PRES   REMARKS
AHOSKIE        MOSUNNY   75  63  65 CALM      30.09F
CLINTON        MOSUNNY   82  67  60 NW3       30.08F
ELIZABETHTOWN  MOSUNNY   81  65  58 CALM      30.08F
GOLDSBORO      MOSUNNY   81  69  67 CALM      30.06F
GREENVILLE     MOSUNNY   79  64  61 N5        30.10F
HAVELOCK       MOSUNNY   81  65  58 N6        30.09F
KENANSVILLE    MOSUNNY   79  64  59 CALM      30.08F
KINSTON        MOSUNNY   81  64  57 NW5       30.09F
NEW BERN       MOSUNNY   81  64  56 CALM      30.09F
RICHLANDS      PTSUNNY   79  64  61 NW3       30.08F
ROANOKE RAPIDS NOT AVBL
ROCKY MOUNT    MOSUNNY   80  64  58 W6        30.08F
WASHINGTON     SUNNY     76  64  67 CALM      30.09F
WHITEVILLE     SUNNY     81  64  57 CALM      30.08F

$$

AMZ130-135-150-152-154-156-158-170-250-252-270-ANZ085-086-088-633-658-670-021900-
MARINE OBSERVATIONS

STATION/POSITION TIME  TEMP    WIND        PRES    WAVE   SWELL
                       AIR SEA DIR/SP/G            HT/PER HT/PER
                 (UTC) (F)     (DEG/KT/KT) (MB)    (FT/S) (FT/S)
CHESAPEAKE LIGHT 1700   68      20/ 12/ 13 1020.1
BUOY 44014       1800   69 71  360/ 14/ 17 1018.2    5/ 8   3/ 8
DUCK             1800   70 73   10/ 10/ 12 1018.4
2E DUCK          1700                        N/A     4/ 8
OREGON INLET     1800   73 73   10/  9/ 13 1018.9
BUOY 44095       1800      72                N/A     4/ 9   2/11
20E OREGON INLET NOT AVBL
HATTERAS CG      1800   72 74   10/  7/  9 1019.3
DIAMOND BUOY     1700   71     350/ 12/ 16 1019.1    3/ 8   2/ 8
CAPE LOOKOUT     1700   73      70/  6/  6 1019.1
BEAUFORT LAB     1800   75 75  150/  6/  9 1018.3
30 SE NEW RIVER  1700   74 80  350/  2/  4 1018.7
5 SE WRIGHTSVILL 1800   72 77  170/  6/  8   N/A
BUOY 41002       1709   79 80   10/ 10/ 12 1017.6    4/ 6   3/ 6
BUOY 41004       1800   78 81   50/  8/ 10 1018.4    2/ 7   2/ 7

$$



USA.gov is the U.S. government's official web portal to all federal, state and local government web resources and services.